Torna al catalogo

ONEWEB-0325

AttivoComunicazioniPO
NORAD 49194·PAYLOAD·🇬🇧 United Kingdom

Lanciato Sep 14, 2021 da Baikonur Cosmodrome

Loading…

Prossimi Passaggi (prossime 24 ore)

TLE

AggiornatoSource: CelesTrak SupGP

Epoca: Sep 14, 2026, 14:53 UTC

1 49194C 21083J   26257.62066389  .00001540  00000+0  39109-2 0  2573
2 49194  87.9167 317.6865 0002055  98.5922  13.9441 13.18688431    16

Traccia ONEWEB-0325 in tempo reale con AllMySat

Download on the App Store